Flag for Belarus Weather past 2 weeks in Gomel, Belarus

Now
64 °F

Broken clouds.


Feels Like: 64 °F
Forecast: 57 / 68 °F
Wind: 10 mph from North

Location: Gomel'

Current Time: May 27, 2015 at 10:56:53 PM

Latest Report: May 27, 2015 at 10:00 PM


Visibility: N/A

Pressure: 29.65 "Hg

Humidity: 78%

Dew point: 57 °F

Location of GomelLocation

Historic Weather in Gomel — Graph

°F

Gomel temperature yesterday

Maximum temperature yesterday: 86 °F (at 4:00 PM)
Minimum temperature yesterday: 57 °F (at 3:00 AM)
Average temperature yesterday: 74 °F

Past Weeks' High & Low Weather Summary

 TemperatureHumidityPressure
High86 °F (May 26, 4:00 PM)100% (May 25, 5:00 AM)30.12 "Hg (May 25, 5:00 AM)
Low37 °F (May 17, 6:30 AM)25% (May 26, 4:00 PM)29.59 "Hg (May 27, 5:30 PM)
Average62 °F62%29.90 "Hg
* Reported May 12 9:00 PM — May 27 9:00 PM, Gomel, Weather by CustomWeather, © 2015

Note: Actual official high and low records may vary slightly from our data, if they occured in-between our weather recording intervals... More about our weather records

Advertising

Gomel weather history for previous 24 hours

 ConditionsComfort  
Time TempWeatherWind HumidityBarometerVisibility
9:00 PM
Wed, May 27
73 °FPartly sunny.10 mph53%29.62 "HgN/A
8:00 PM75 °FThunderstorms. Partly sunny.10 mph50%29.62 "HgN/A
7:30 PM79 °FPartly sunny.10 mph51%29.59 "HgN/A
7:00 PM79 °FSunny.10 mph51%29.59 "Hg10 mi
6:30 PM79 °FSunny.10 mph45%29.59 "Hg10 mi
6:00 PM79 °FSunny.15 mph45%29.59 "Hg10 mi
5:30 PM79 °FSunny.15 mph45%29.59 "Hg10 mi
5:00 PM79 °FSunny.13 mph45%29.62 "Hg10 mi
4:30 PM77 °FBroken clouds.13 mph51%29.62 "HgN/A
3:30 PM82 °FSunny.13 mph40%29.65 "Hg10 mi
3:00 PM82 °FSunny.10 mph40%29.65 "Hg10 mi
2:30 PM81 °FSunny.10 mph39%29.65 "Hg10 mi
2:00 PM81 °FSunny.13 mph39%29.68 "Hg10 mi
1:30 PM75 °FBroken clouds.13 mph50%29.68 "HgN/A
1:00 PM75 °FBroken clouds.10 mph50%29.68 "HgN/A
12:30 PM73 °FSunny.10 mph61%29.68 "Hg10 mi
12:00 PM73 °FSunny.10 mph61%29.68 "Hg10 mi
11:30 AM72 °FSunny.13 mph61%29.68 "Hg10 mi
11:00 AM72 °FSunny.10 mph61%29.68 "Hg10 mi
10:30 AM64 °FBroken clouds.8 mph73%29.68 "Hg5 mi
10:00 AM64 °FBroken clouds.3 mph73%29.68 "Hg4 mi
9:30 AM63 °FBroken clouds.3 mph73%29.68 "HgN/A
9:00 AM63 °FBroken clouds.3 mph73%29.68 "HgN/A
8:30 AM63 °FBroken clouds.3 mph73%29.68 "HgN/A
8:00 AM63 °FPartly sunny.1 mph73%29.68 "HgN/A
7:30 AM61 °FPartly sunny.3 mph68%29.68 "HgN/A
7:00 AM61 °FPartly sunny.6 mph68%29.68 "HgN/A
6:30 AM61 °FBroken clouds.6 mph63%29.68 "HgN/A
6:00 AM61 °FBroken clouds.6 mph63%29.68 "HgN/A
5:00 AM61 °FPassing clouds.8 mph68%29.68 "HgN/A
4:00 AM63 °FClear.6 mph64%29.68 "Hg10 mi
3:00 AM63 °FClear.6 mph64%29.68 "Hg10 mi
2:00 AM64 °FClear.6 mph64%29.71 "Hg10 mi
1:00 AM66 °FClear.8 mph56%29.71 "Hg10 mi
12:00 AM68 °FClear.8 mph49%29.71 "Hg10 mi
11:00 PM
Tue, May 26
70 °FClear.8 mph50%29.71 "Hg10 mi
10:00 PM73 °FClear.8 mph47%29.74 "Hg10 mi
Weather by CustomWeather, © 2015

See weather overviewHow to use our weather pages